[[{"header":{"parameterUnit":"m.s-1","parameterCategory":2,"la1":30.2991,"la2":30.254,"lo1":-89.0895,"lo2":-89.0444,"dy":0.0017,"dx":0.0017,"nx":28,"ny":28,"refTime":"2025-04-30T09:00:00:Z","depth":"0","parameterNumber":2,"parameterNumberName":"U-component_of_CURRENTS"},"data":[0,0,0,0,0,0,0,0,0,0,0,0,0,0,0,0,0,0,0,0,0,0,0,0,0,0,0,0,0,0,0,0,0,0,0,0,0,0,0,0,0,0,0,0,0,0,0,0,0,0,0,0,0,0,0,0,0,0,0.3074,0.3074,0,0.3076,0.3075,0.3075,0.3049,0.3049,0.3048,0.3048,0.3024,0.3024,0.3024,0,0,0,0,0,0,0,0,0,0,0,0,0,0.3059,0.306,0.3074,0.3074,0.3074,0.3076,0.3075,0.3075,0.3049,0.3049,0.3048,0.3048,0.3024,0.3024,0.3024,0,0,0,0,0,0,0,0,0,0,0,0,0,0.3061,0.306,0.3074,0.3063,0.3063,0.3076,0.3075,0.3075,0.3049,0.3049,0.3048,0.3047,0.3024,0.3024,0.3024,0.3036,0,0,0.3023,0.3023,0,0,0,0,0,0,0,0,0.3061,0.3062,0.3065,0.3064,0.3064,0.3064,0.3062,0.3062,0.305,0.3052,0.3048,0.3047,0.3037,0.3036,0.3034,0.3035,0.3034,0.3023,0.3023,0.3023,0.3022,0,0,0,0,0,0,0,0.3061,0.3061,0.3072,0.3065,0.3064,0.3063,0.3062,0.3062,0.3046,0.3051,0.305,0.3055,0.3036,0.3035,0.3034,0.3033,0.3023,0.3023,0.3022,0.3022,0.3079,0.308,0,0,0,0,0,0,0.3067,0.3061,0.3072,0.3072,0.3064,0.3064,0.3063,0.3062,0.3046,0.3044,0.3056,0.3054,0.3036,0.3034,0.3033,0.3069,0.3023,0.3022,0.3022,0.3077,0.3079,0.3081,0,0,0,0,0,0,0.3066,0.3067,0.3072,0.3069,0.307,0.3065,0.3065,0.3063,0.3065,0.305,0.3047,0.306,0.3035,0.3033,0.3044,0.3067,0.3022,0.3022,0.3075,0.3078,0.308,0.3127,0,0,0,0,0,0,0.3066,0.3067,0.307,0.3069,0.307,0.3085,0.3066,0.3063,0.307,0.3068,0.3054,0.305,0.3034,0.3045,0.3044,0.3066,0.3022,0.3073,0.3076,0.3079,0.3123,0.3131,0.3137,0,0,0,0,0,0.3065,0.307,0.307,0.3071,0.3074,0.3085,0.3086,0.3078,0.3071,0.3076,0.3072,0.3051,0.3064,0.3046,0.3044,0.3067,0.3071,0.3075,0.3079,0.312,0.3129,0.3137,0,0,0,0,0,0,0.3062,0.3068,0.3068,0.3073,0.3083,0.3082,0.3087,0.3086,0.3087,0.3085,0.3067,0.3064,0.3088,0.3074,0.3054,0.3095,0.3067,0.307,0.3099,0.3107,0.3114,0.3125,0.3021,0,0,0,0,0,0.3066,0.3071,0.3079,0.3085,0.309,0.3092,0.3096,0.3095,0.3097,0.3096,0.3089,0.3089,0.3103,0.3101,0.3108,0.3123,0.3134,0.314,0.3147,0.3153,0.3163,0.3214,0.3226,0.3093,0.3093,0.3093,0,0,0.3066,0.3072,0.3074,0.3086,0.309,0.3105,0.3092,0.3104,0.3119,0.3095,0.311,0.3115,0.3116,0.3138,0.3147,0.3126,0.3196,0.3157,0.3162,0.317,0.3219,0.3232,0.3243,0.3096,0.3095,0.3095,0,0,0.3073,0.3076,0.3083,0.3095,0.3111,0.3118,0.3126,0.3133,0.3137,0.3157,0.3153,0.3174,0.3178,0.319,0.3195,0.3247,0.3238,0.3248,0.3282,0.333,0.3342,0.3352,0.3379,0.3391,0.3243,0.3243,0.3243,0,0.3074,0.3083,0.3089,0.3103,0.3116,0.3127,0.3144,0.3156,0.3168,0.3185,0.3167,0.3216,0.3207,0.3255,0.3268,0.3262,0.3282,0.3245,0.3339,0.335,0.3359,0.3384,0.3397,0.3246,0.3245,0.3245,0.3245,0,0.3085,0.3097,0.3105,0.3127,0.3145,0.3161,0.3184,0.3203,0.3213,0.3232,0.3282,0.3283,0.3313,0.3315,0.3301,0.337,0.336,0.3348,0.3316,0.3375,0.3398,0.341,0.325,0.3249,0.3248,0.3247,0,0,0.307,0.3105,0.3106,0.3119,0.3158,0.317,0.3212,0.3253,0.3292,0.331,0.3361,0.3386,0.3399,0.3409,0.3405,0.3436,0.3508,0.3418,0.3419,0.344,0.361,0.3566,0.3574,0.3515,0.3518,0.352,0.3597,0,0.3075,0.3102,0.3123,0.3153,0.3169,0.3202,0.3243,0.3287,0.3328,0.3382,0.341,0.3457,0.3433,0.3451,0.3486,0.3511,0.3545,0.3488,0.3553,0.3555,0.3505,0.3589,0.3481,0.3538,0.3609,0.3611,0.3612,0,0.3071,0.3093,0.3119,0.3167,0.3178,0.3203,0.3274,0.3316,0.3406,0.3444,0.3509,0.3533,0.3594,0.3556,0.3642,0.361,0.3617,0.3626,0.3629,0.3581,0.3535,0.3492,0.3557,0.3478,0.3631,0.363,0.3628,0,0.304,0.3084,0.3103,0.3118,0.318,0.32,0.3243,0.3333,0.3384,0.3491,0.3539,0.3623,0.3663,0.3704,0.3721,0.3691,0.3807,0.3767,0.3736,0.3732,0.365,0.3634,0.3642,0.3831,0.3831,0.3831,0.3831,0,0.3026,0.3038,0.3087,0.3094,0.3127,0.3185,0.3241,0.3308,0.3418,0.3482,0.3567,0.363,0.3704,0.3766,0.377,0.3804,0.3853,0.3767,0.3763,0.3662,0.3647,0.358,0.356,0.3834,0.3833,0.3832,0.3832,0,0.2977,0.301,0.3032,0.3092,0.3107,0.3132,0.322,0.3271,0.3389,0.3477,0.351,0.366,0.3749,0.3807,0.3886,0.3862,0.3796,0.3885,0.3752,0.3731,0.3601,0.3587,0.3451,0.3351,0.3865,0.3865,0.3865,0,0.2951,0.2958,0.3009,0.3016,0.3035,0.3081,0.3113,0.3237,0.3298,0.3477,0.3511,0.3651,0.3729,0.3855,0.3859,0.389,0.378,0.3788,0.3707,0.3603,0.3586,0.3417,0.3331,0.3616,0.3614,0.3612,0.361,0,0.2905,0.2922,0.2938,0.2956,0.2976,0.3,0.3058,0.31,0.3242,0.3325,0.3444,0.3532,0.369,0.3712,0.3783,0.3774,0.362,0.3746,0.3684,0.3441,0.3214,0.3112,0.3544,0.3593,0.3595,0.3596,0.3597,0.3598,0.2862,0.2858,0.2877,0.2879,0.2896,0.2892,0.2878,0.2959,0.3025,0.3123,0.3293,0.3381,0.3551,0.3649,0.3621,0.3533,0.3489,0.3433,0.3442,0.3289,0.3139,0.3527,0.354,0.3541,0.3542,0.3543,0.3544,0,0.28,0.2794,0.2798,0.2778,0.2743,0.2791,0.2812,0.2784,0.2796,0.2955,0.3048,0.3197,0.3266,0.3365,0.3378,0.3259,0.3078,0.3173,0.2927,0.287,0.3271,0.3208,0.3094,0.3094,0.3094,0.3094,0.3094,0.3095,0.2765,0.2732,0.2722,0.2622,0.2603,0.2518,0.25,0.2493,0.2564,0.2628,0.2716,0.2851,0.3111,0.3231,0.3139,0.3051,0.2833,0.2702,0.2681,0.3008,0.3031,0.3054,0.2988,0.283,0.283,0.2132,0.2127,0.2124]},{"header":{"parameterUnit":"m.s-1","parameterCategory":2,"la1":30.2991,"la2":30.254,"lo1":-89.0895,"lo2":-89.0444,"dy":0.0017,"dx":0.0017,"nx":28,"ny":28,"refTime":"2025-04-30T09:00:00:Z","depth":"0","parameterNumber":3,"parameterNumberName":"V-component_of_CURRENTS"},"data":[0,0,0,0,0,0,0,0,0,0,0,0,0,0,0,0,0,0,0,0,0,0,0,0,0,0,0,0,0,0,0,0,0,0,0,0,0,0,0,0,0,0,0,0,0,0,0,0,0,0,0,0,0,0,0,0,0,0,0.0372,0.0371,0,0.0327,0.0327,0.0326,0.0292,0.0292,0.0292,0.0292,0.022,0.0218,0.0216,0,0,0,0,0,0,0,0,0,0,0,0,0,0.0362,0.0363,0.0372,0.0371,0.0371,0.0327,0.0327,0.0326,0.0292,0.0292,0.0292,0.0292,0.0221,0.0218,0.0216,0,0,0,0,0,0,0,0,0,0,0,0,0,0.0346,0.0363,0.0372,0.035,0.0348,0.0327,0.0326,0.0326,0.0292,0.0292,0.0292,0.0292,0.0221,0.0219,0.0216,0.0204,0,0,0.0208,0.0207,0,0,0,0,0,0,0,0,0.0347,0.0346,0.0354,0.0352,0.0349,0.0317,0.0297,0.0284,0.0293,0.0312,0.0292,0.0292,0.0251,0.0246,0.0236,0.0201,0.0198,0.0208,0.0206,0.0205,0.0204,0,0,0,0,0,0,0,0.0348,0.0347,0.0352,0.0353,0.0351,0.032,0.0318,0.0294,0.0281,0.031,0.0308,0.0306,0.0249,0.0239,0.0234,0.0197,0.0208,0.0205,0.0204,0.0203,0.0154,0.0154,0,0,0,0,0,0,0.0361,0.0349,0.0354,0.0351,0.0349,0.0321,0.0319,0.0326,0.0282,0.0276,0.0306,0.0304,0.0243,0.0237,0.0231,0.0234,0.0205,0.0202,0.0201,0.0153,0.0154,0.0154,0,0,0,0,0,0,0.0361,0.0362,0.0356,0.0349,0.0347,0.0322,0.033,0.0325,0.0318,0.028,0.0273,0.0305,0.0243,0.0235,0.0219,0.023,0.0201,0.0199,0.0153,0.0154,0.0154,0.0227,0,0,0,0,0,0,0.0361,0.0362,0.037,0.0351,0.0348,0.0354,0.033,0.0325,0.0318,0.0315,0.0277,0.0269,0.0242,0.0223,0.0216,0.0226,0.0197,0.0153,0.0153,0.0154,0.0224,0.0229,0.0234,0,0,0,0,0,0.0361,0.0378,0.0371,0.0371,0.036,0.0355,0.0351,0.033,0.0318,0.0322,0.0296,0.0271,0.0221,0.0221,0.0213,0.0222,0.0152,0.0153,0.0154,0.0221,0.0228,0.0234,0,0,0,0,0,0,0.0375,0.0376,0.0367,0.0383,0.0374,0.035,0.035,0.0337,0.0318,0.0314,0.0276,0.0267,0.0255,0.0228,0.0229,0.0209,0.0182,0.0181,0.0236,0.0242,0.0248,0.0268,0.0195,0,0,0,0,0,0.0383,0.0397,0.0387,0.0397,0.0396,0.0373,0.0368,0.0356,0.0338,0.0329,0.0303,0.0273,0.0251,0.024,0.0213,0.0205,0.0176,0.0204,0.0209,0.0214,0.0224,0.0188,0.0191,0.0156,0.0156,0.0156,0,0,0.0389,0.0392,0.0398,0.0401,0.039,0.0402,0.0369,0.0368,0.0375,0.0324,0.0324,0.029,0.0251,0.0242,0.0234,0.0223,0.0208,0.0215,0.0219,0.0227,0.0189,0.0192,0.0195,0.0157,0.0157,0.0157,0,0,0.0414,0.0413,0.0435,0.0436,0.0431,0.042,0.0425,0.0408,0.0398,0.0392,0.0357,0.0334,0.03,0.0277,0.0261,0.0278,0.0236,0.0267,0.0313,0.0278,0.0281,0.0283,0.0254,0.0253,0.0272,0.0272,0.0272,0,0.0421,0.0453,0.0438,0.046,0.047,0.0436,0.0464,0.0448,0.0427,0.0428,0.0402,0.0356,0.0318,0.0312,0.0315,0.0291,0.0266,0.0295,0.0286,0.0287,0.0288,0.0258,0.0256,0.0276,0.0275,0.0275,0.0275,0,0.0466,0.049,0.0503,0.0526,0.0531,0.0548,0.0533,0.0527,0.0508,0.0498,0.0483,0.0427,0.0405,0.0383,0.0353,0.0346,0.0324,0.0296,0.0274,0.0296,0.0262,0.0259,0.0281,0.0279,0.0278,0.0278,0,0,0.0487,0.0529,0.0534,0.0565,0.0572,0.0586,0.0593,0.0602,0.0625,0.0578,0.0596,0.0537,0.0508,0.0487,0.044,0.0404,0.0381,0.0359,0.0356,0.0339,0.0308,0.0293,0.0287,0.0351,0.0351,0.0351,0.0283,0,0.0529,0.0597,0.0601,0.0661,0.0699,0.0678,0.0697,0.0695,0.0686,0.0692,0.0624,0.0621,0.0549,0.054,0.0492,0.0415,0.0375,0.0402,0.0282,0.0279,0.0269,0.0283,0.0321,0.0265,0.028,0.0279,0.0279,0,0.0576,0.0621,0.0693,0.0751,0.0765,0.0788,0.0825,0.0842,0.0832,0.0825,0.0798,0.0746,0.0692,0.0621,0.0496,0.0518,0.0422,0.0349,0.0344,0.0304,0.0257,0.0243,0.0257,0.0133,0.0273,0.0273,0.0274,0,0.0617,0.0686,0.0752,0.0772,0.0824,0.0844,0.0869,0.0882,0.0924,0.0914,0.0934,0.0854,0.0825,0.0691,0.0533,0.0516,0.039,0.0346,0.024,0.0237,0.0234,0.0232,0.0122,0.0253,0.0253,0.0253,0.0253,0,0.067,0.0722,0.0777,0.0815,0.0898,0.0908,0.0992,0.0999,0.1037,0.1102,0.1011,0.1033,0.084,0.074,0.0576,0.0408,0.042,0.0255,0.0221,0.026,0.0261,0.0123,0.0039,0.025,0.0251,0.0251,0.0252,0,0.0707,0.074,0.0824,0.0893,0.0921,0.0982,0.1081,0.1147,0.1162,0.1237,0.1236,0.1174,0.1049,0.0845,0.064,0.0483,0.0228,0.024,0.0303,0.0277,0.006,-0.0021,-0.0187,-0.0272,0.0118,0.0117,0.0116,0,0.0734,0.0782,0.0885,0.0944,0.0979,0.1074,0.1147,0.1205,0.1289,0.133,0.1374,0.1278,0.124,0.0939,0.0648,0.037,0.0211,0.0209,0.0175,0.006,-0.0055,-0.012,-0.0184,0.0197,0.0197,0.0197,0.0197,0,0.079,0.0821,0.0892,0.1015,0.1103,0.1219,0.1326,0.1412,0.1481,0.1545,0.1607,0.1577,0.1298,0.1058,0.0672,0.0462,0.0123,0.0201,0.0066,-0.0012,-0.0073,-0.0174,0.0227,0.0198,0.0198,0.0198,0.0198,0.0198,0.0829,0.0886,0.0977,0.1092,0.1202,0.1338,0.1438,0.1567,0.1707,0.1819,0.179,0.1807,0.1454,0.0949,0.0632,0.0139,0.0104,0.0004,-0.0087,-0.0143,-0.0219,0.0187,0.0126,0.0126,0.0125,0.0125,0.0125,0,0.0878,0.0942,0.105,0.1186,0.1306,0.1359,0.1542,0.1658,0.1828,0.1967,0.2035,0.193,0.1473,0.0987,0.0327,-0.0045,-0.0215,-0.0256,-0.0333,-0.0391,-0.0032,-0.002,-0.0093,-0.0093,-0.0093,-0.0093,-0.0093,-0.0093,0.0904,0.1004,0.1056,0.1242,0.1341,0.151,0.1615,0.1795,0.1949,0.2152,0.2236,0.228,0.1961,0.0709,-0.0087,-0.0282,-0.0555,-0.0626,-0.0784,-0.0519,-0.0501,-0.0484,-0.0491,-0.0662,-0.0663,-0.1082,-0.1086,-0.109]}],[{"header":{"parameterUnit":"m.s-1","parameterCategory":2,"la1":30.2991,"la2":30.254,"lo1":-89.0895,"lo2":-89.0444,"dy":0.0017,"dx":0.0017,"nx":28,"ny":28,"refTime":"2025-04-30T09:00:00:Z","depth":"2","parameterNumber":2,"parameterNumberName":"U-component_of_CURRENTS"},"data":[0,0,0,0,0,0,0,0,0,0,0,0,0,0,0,0,0,0,0,0,0,0,0,0,0,0,0,0,0,0,0,0,0,0,0,0,0,0,0,0,0,0,0,0,0,0,0,0,0,0,0,0,0,0,0,0,0,0,0.2949,0.2949,0,0.2956,0.2955,0.2955,0.2939,0.2939,0.2939,0.2938,0.2925,0.2925,0.2925,0,0,0,0,0,0,0,0,0,0,0,0,0,0.2932,0.2932,0.2949,0.2949,0.2949,0.2956,0.2955,0.2955,0.2939,0.2939,0.2938,0.2938,0.2925,0.2925,0.2925,0,0,0,0,0,0,0,0,0,0,0,0,0,0.2936,0.2932,0.2948,0.2944,0.2944,0.2956,0.2955,0.2955,0.2939,0.2939,0.2938,0.2938,0.2925,0.2925,0.2925,0.2932,0,0,0.2925,0.2925,0,0,0,0,0,0,0,0,0.2936,0.2937,0.2944,0.2944,0.2944,0.2948,0.2945,0.2948,0.2939,0.2938,0.2938,0.2938,0.2933,0.2932,0.2931,0.2932,0.2931,0.2925,0.2925,0.2925,0.2924,0,0,0,0,0,0,0,0.2936,0.2936,0.2949,0.2945,0.2945,0.2945,0.2945,0.2945,0.2935,0.2938,0.2938,0.2943,0.2933,0.2931,0.2931,0.2931,0.2925,0.2925,0.2924,0.2924,0.2983,0.2985,0,0,0,0,0,0,0.294,0.2936,0.2948,0.2949,0.2942,0.2946,0.2946,0.2945,0.2936,0.2935,0.2943,0.2942,0.2932,0.2931,0.293,0.2971,0.2925,0.2924,0.2924,0.2981,0.2983,0.2985,0,0,0,0,0,0,0.294,0.2941,0.2948,0.2945,0.2946,0.2947,0.2946,0.2946,0.2953,0.294,0.2938,0.2953,0.2931,0.293,0.2945,0.2969,0.2924,0.2924,0.2979,0.2982,0.2984,0.3032,0,0,0,0,0,0,0.2939,0.2941,0.2945,0.2945,0.2947,0.2962,0.2947,0.2946,0.2957,0.2956,0.2948,0.2946,0.2931,0.2945,0.2945,0.2968,0.2924,0.2977,0.2981,0.2983,0.3029,0.3036,0.3042,0,0,0,0,0,0.2938,0.2943,0.2945,0.2947,0.2952,0.2963,0.2964,0.2961,0.2959,0.2965,0.2965,0.2946,0.2964,0.2946,0.2945,0.2969,0.2976,0.298,0.2983,0.3026,0.3035,0.3042,0,0,0,0,0,0,0.2937,0.2943,0.2945,0.2951,0.2962,0.2962,0.2969,0.2971,0.2976,0.2977,0.2962,0.296,0.2987,0.2974,0.2955,0.2998,0.297,0.2973,0.3002,0.3011,0.3017,0.3027,0.2924,0,0,0,0,0,0.2941,0.2947,0.2955,0.2962,0.2968,0.2973,0.2979,0.2981,0.2985,0.2986,0.2983,0.2986,0.3001,0.3001,0.3009,0.3026,0.3035,0.3044,0.3051,0.3057,0.3067,0.3114,0.3126,0.2997,0.2997,0.2997,0,0,0.2942,0.2948,0.2951,0.2963,0.2969,0.2985,0.2974,0.2989,0.3006,0.2985,0.3005,0.3012,0.3014,0.3038,0.3048,0.3028,0.3099,0.3062,0.3066,0.3073,0.3119,0.3131,0.3142,0.3,0.2999,0.2999,0,0,0.2949,0.2955,0.2962,0.2974,0.2992,0.3,0.3009,0.3019,0.3026,0.3049,0.3048,0.3072,0.3078,0.309,0.3096,0.3147,0.314,0.3151,0.3185,0.323,0.3241,0.3251,0.3276,0.3287,0.3147,0.3147,0.3147,0,0.2953,0.296,0.2968,0.2982,0.2996,0.301,0.3027,0.3041,0.3057,0.3076,0.3062,0.3113,0.3107,0.3153,0.3168,0.3163,0.3182,0.3149,0.3239,0.3249,0.3258,0.3281,0.3293,0.315,0.3149,0.3149,0.3149,0,0.2962,0.2975,0.2982,0.3006,0.3024,0.3041,0.3065,0.3087,0.3102,0.3123,0.3175,0.3178,0.321,0.3214,0.3202,0.3269,0.3259,0.3247,0.3215,0.3274,0.3294,0.3306,0.3154,0.3153,0.3152,0.3151,0,0,0.2949,0.2982,0.2984,0.2998,0.3038,0.305,0.3092,0.3135,0.3174,0.3198,0.3249,0.3277,0.3294,0.3303,0.3302,0.3332,0.3402,0.3316,0.3317,0.3337,0.3498,0.3447,0.3454,0.341,0.3412,0.3414,0.3485,0,0.2954,0.2978,0.2999,0.303,0.3045,0.308,0.3121,0.3167,0.321,0.3266,0.3296,0.3345,0.3325,0.3347,0.338,0.3405,0.3437,0.3384,0.3443,0.3445,0.3389,0.3468,0.318,0.3216,0.3496,0.3498,0.35,0,0.2949,0.2969,0.2995,0.3043,0.3054,0.3081,0.3154,0.3195,0.3285,0.3326,0.3392,0.3419,0.3481,0.3447,0.3528,0.3499,0.3507,0.3514,0.3517,0.3462,0.3416,0.3205,0.3226,0.3519,0.3517,0.3516,0.3515,0,0.2919,0.2962,0.2982,0.2996,0.3057,0.3082,0.3125,0.3214,0.3265,0.3374,0.3423,0.3506,0.3548,0.3587,0.3604,0.3578,0.3684,0.3646,0.3608,0.3604,0.3366,0.3337,0.3707,0.3707,0.3707,0.3706,0.3706,0,0.2904,0.2917,0.2968,0.2975,0.3012,0.3068,0.3129,0.3194,0.3302,0.3366,0.3453,0.3513,0.3587,0.3646,0.365,0.3676,0.3727,0.3637,0.3631,0.3375,0.3347,0.3611,0.3599,0.3709,0.3708,0.3708,0.3707,0,0.2858,0.2891,0.2913,0.2975,0.2993,0.3021,0.3113,0.3162,0.328,0.3366,0.3402,0.3544,0.3627,0.3684,0.3757,0.3729,0.3756,0.3745,0.3434,0.3392,0.3629,0.3619,0.3716,0.3715,0.3714,0.3713,0.3713,0,0.2834,0.2842,0.2894,0.2904,0.2927,0.2977,0.3011,0.3134,0.3192,0.3365,0.3397,0.3532,0.3598,0.371,0.3687,0.3707,0.3762,0.3445,0.3343,0.3652,0.3637,0.3627,0.3618,0.3039,0.3032,0.3028,0.3024,0,0.279,0.281,0.2826,0.2848,0.2872,0.2898,0.2959,0.2998,0.3137,0.3215,0.3324,0.3401,0.3524,0.3434,0.3487,0.3448,0.3421,0.3347,0.376,0.3092,0.3022,0.3005,0.3016,0.298,0.2984,0.2987,0.299,0.2991,0.2752,0.2748,0.2769,0.2776,0.2796,0.2793,0.2781,0.2855,0.2914,0.2987,0.3146,0.3161,0.3224,0.3164,0.3073,0.2996,0.3235,0.3074,0.3085,0.3102,0.3023,0.2956,0.2885,0.2889,0.2892,0.2895,0.2898,0,0.2693,0.269,0.2695,0.2679,0.2645,0.27,0.2718,0.2676,0.2675,0.2777,0.2842,0.2643,0.2615,0.2662,0.2489,0.2507,0.2432,0.2393,0.2262,0.2311,0.2353,0.223,0.1885,0.1881,0.1878,0.1874,0,0,0.266,0.2627,0.2617,0.2524,0.2513,0.2429,0.2412,0.2373,0.2394,0.2346,0.2328,0.2521,0.2616,0.2217,0.2176,0.1999,0.2128,0.1915,0.2739,0.2637,0.2673,0.2773,0.2643,0,0,0,0,0]},{"header":{"parameterUnit":"m.s-1","parameterCategory":2,"la1":30.2991,"la2":30.254,"lo1":-89.0895,"lo2":-89.0444,"dy":0.0017,"dx":0.0017,"nx":28,"ny":28,"refTime":"2025-04-30T09:00:00:Z","depth":"2","parameterNumber":3,"parameterNumberName":"V-component_of_CURRENTS"},"data":[0,0,0,0,0,0,0,0,0,0,0,0,0,0,0,0,0,0,0,0,0,0,0,0,0,0,0,0,0,0,0,0,0,0,0,0,0,0,0,0,0,0,0,0,0,0,0,0,0,0,0,0,0,0,0,0,0,0,0.0276,0.0276,0,0.0234,0.0233,0.0233,0.0203,0.0203,0.0203,0.0203,0.0134,0.0133,0.0131,0,0,0,0,0,0,0,0,0,0,0,0,0,0.0267,0.0268,0.0276,0.0276,0.0275,0.0234,0.0233,0.0232,0.0203,0.0203,0.0203,0.0203,0.0135,0.0133,0.0131,0,0,0,0,0,0,0,0,0,0,0,0,0,0.0251,0.0268,0.0276,0.0257,0.0255,0.0234,0.0233,0.0232,0.0203,0.0203,0.0203,0.0202,0.0136,0.0133,0.013,0.0117,0,0,0.0123,0.0121,0,0,0,0,0,0,0,0,0.0252,0.0252,0.026,0.0258,0.0256,0.0225,0.0205,0.0193,0.0203,0.0221,0.0203,0.0202,0.0163,0.0158,0.0149,0.0114,0.0111,0.0122,0.0121,0.012,0.0119,0,0,0,0,0,0,0,0.0254,0.0253,0.0258,0.0259,0.0257,0.0228,0.0226,0.0202,0.0192,0.0219,0.0217,0.0215,0.0162,0.0152,0.0147,0.011,0.0122,0.012,0.0118,0.0117,0.0071,0.0071,0,0,0,0,0,0,0.0266,0.0254,0.0259,0.0257,0.0255,0.0229,0.0227,0.0234,0.0192,0.0187,0.0215,0.0214,0.0156,0.015,0.0145,0.0149,0.012,0.0117,0.0116,0.007,0.0071,0.0071,0,0,0,0,0,0,0.0266,0.0267,0.0261,0.0255,0.0252,0.023,0.0237,0.0233,0.0228,0.019,0.0183,0.0216,0.0156,0.0148,0.0133,0.0145,0.0116,0.0114,0.007,0.007,0.0071,0.0143,0,0,0,0,0,0,0.0266,0.0267,0.0275,0.0256,0.0253,0.026,0.0238,0.0232,0.0227,0.0225,0.0188,0.0182,0.0155,0.0137,0.0131,0.0141,0.0112,0.007,0.007,0.0071,0.014,0.0146,0.0151,0,0,0,0,0,0.0266,0.0282,0.0276,0.0276,0.0266,0.0261,0.0257,0.0238,0.0228,0.0232,0.0207,0.0183,0.0136,0.0136,0.0128,0.0138,0.0069,0.007,0.0071,0.0138,0.0145,0.0151,0,0,0,0,0,0,0.028,0.028,0.0273,0.0288,0.0279,0.0257,0.0257,0.0245,0.0228,0.0224,0.0188,0.018,0.0169,0.0143,0.0143,0.0125,0.0098,0.0097,0.0152,0.0158,0.0163,0.0183,0.0109,0,0,0,0,0,0.0288,0.0301,0.0292,0.0302,0.0301,0.028,0.0274,0.0264,0.0247,0.0239,0.0214,0.0186,0.0164,0.0154,0.0129,0.0121,0.0091,0.0121,0.0126,0.0131,0.0141,0.0103,0.0106,0.0073,0.0073,0.0073,0,0,0.0294,0.0296,0.0302,0.0305,0.0295,0.0307,0.0276,0.0275,0.0284,0.0234,0.0235,0.0203,0.0165,0.0157,0.015,0.0139,0.0124,0.0132,0.0136,0.0144,0.0104,0.0107,0.011,0.0074,0.0074,0.0074,0,0,0.0318,0.0318,0.0338,0.034,0.0336,0.0326,0.0331,0.0315,0.0307,0.0302,0.0268,0.0247,0.0214,0.0193,0.0177,0.0195,0.0152,0.0184,0.023,0.0194,0.0196,0.0198,0.0167,0.0166,0.019,0.019,0.019,0,0.0325,0.0355,0.0341,0.0363,0.0373,0.0342,0.0369,0.0354,0.0336,0.0336,0.0312,0.0268,0.0233,0.0226,0.0231,0.0208,0.0181,0.0212,0.0202,0.0203,0.0204,0.0171,0.0169,0.0193,0.0193,0.0192,0.0192,0,0.0368,0.0392,0.0404,0.0427,0.0433,0.0449,0.0436,0.0432,0.0415,0.0405,0.0391,0.0338,0.0317,0.0297,0.0269,0.0261,0.0239,0.0212,0.019,0.0212,0.0176,0.0172,0.0198,0.0197,0.0196,0.0195,0,0,0.0389,0.0429,0.0434,0.0464,0.0473,0.0486,0.0494,0.0504,0.0525,0.0482,0.0498,0.0445,0.0417,0.0396,0.0352,0.0317,0.0293,0.0274,0.027,0.0251,0.0217,0.0202,0.0195,0.0264,0.0264,0.0263,0.0192,0,0.0429,0.0494,0.0498,0.0557,0.0593,0.0574,0.0593,0.0593,0.0584,0.0589,0.0524,0.0522,0.0456,0.0449,0.0402,0.0325,0.0286,0.0315,0.0192,0.0189,0.0178,0.0191,0.0204,0.0141,0.0188,0.0187,0.0186,0,0.0475,0.0517,0.0586,0.0642,0.0655,0.0679,0.0714,0.0731,0.072,0.0713,0.0688,0.0639,0.0587,0.0522,0.0399,0.0422,0.0329,0.0258,0.0253,0.0212,0.0166,0.0124,0.0132,0.0179,0.018,0.018,0.0181,0,0.0513,0.058,0.0643,0.0662,0.0712,0.0733,0.0757,0.077,0.0809,0.0799,0.0816,0.074,0.0711,0.0582,0.043,0.0416,0.0287,0.0247,0.0143,0.0141,0.0115,0.0111,0.0155,0.0155,0.0155,0.0156,0.0156,0,0.0564,0.0614,0.0668,0.0704,0.0783,0.0794,0.0874,0.0881,0.0914,0.0974,0.0891,0.0908,0.0724,0.0624,0.0467,0.0302,0.0313,0.0158,0.0124,0.014,0.014,0.0141,0.0141,0.0153,0.0153,0.0154,0.0154,0,0.06,0.0631,0.0712,0.0778,0.0806,0.0864,0.0959,0.1021,0.1035,0.1103,0.1103,0.104,0.0916,0.072,0.0519,0.0369,0.0199,0.0133,0.0168,0.014,0.0066,0.007,0.0015,0.0014,0.0013,0.0012,0.0011,0,0.0626,0.0671,0.0771,0.0828,0.0862,0.0954,0.1024,0.1077,0.1155,0.1189,0.1228,0.1134,0.109,0.0793,0.0513,0.0244,0.0202,0.0071,0.0041,0.0081,0.0053,0.0058,0.0063,0.0031,0.003,0.003,0.0029,0,0.0679,0.0709,0.0777,0.0897,0.0982,0.1091,0.1194,0.1272,0.1334,0.1392,0.1443,0.1409,0.1132,0.0873,0.05,0.0308,0.0113,0.0055,0.0086,0.007,0.0091,0.0065,0.007,0.0026,0.0026,0.0027,0.0027,0.0027,0.0717,0.0771,0.0858,0.0972,0.1077,0.1206,0.1302,0.1418,0.1545,0.1628,0.1597,0.1548,0.1243,0.0777,0.0445,0.0089,0.0114,-0.0022,-0.0019,-0.0017,0.0004,0.0023,-0.0051,-0.0051,-0.0051,-0.0051,-0.0051,0,0.0765,0.0827,0.093,0.1061,0.1176,0.1231,0.1403,0.1497,0.1649,0.1724,0.1768,0.1462,0.1173,0.0811,0.0294,-0.0006,-0.0039,-0.0116,-0.0088,-0.0082,-0.0077,-0.0059,-0.0132,-0.0133,-0.0134,-0.0135,0,0,0.079,0.0886,0.0935,0.1115,0.1214,0.1373,0.1474,0.1612,0.1708,0.1782,0.1763,0.1716,0.1283,0.0892,0.0476,0.0175,0.0113,0.0105,0.0203,0.0293,0.0301,0.0011,0.005,0,0,0,0,0]}],[{"header":{"parameterUnit":"m.s-1","parameterCategory":2,"la1":30.2991,"la2":30.254,"lo1":-89.0895,"lo2":-89.0444,"dy":0.0017,"dx":0.0017,"nx":28,"ny":28,"refTime":"2025-04-30T09:00:00:Z","depth":"4","parameterNumber":2,"parameterNumberName":"U-component_of_CURRENTS"},"data":[0,0,0,0,0,0,0,0,0,0,0,0,0,0,0,0,0,0,0,0,0,0,0,0,0,0,0,0,0,0,0,0,0,0,0,0,0,0,0,0,0,0,0,0,0,0,0,0,0,0,0,0,0,0,0,0,0,0,0.1914,0.1915,0,0.1977,0.1977,0.1978,0.2034,0.2035,0.2036,0.2037,0.2115,0.2116,0.2117,0,0,0,0,0,0,0,0,0,0,0,0,0,0.1843,0.1844,0.1914,0.1915,0.1916,0.1977,0.1977,0.1978,0.2034,0.2035,0.2036,0.2037,0.2114,0.2116,0.2117,0,0,0,0,0,0,0,0,0,0,0,0,0,0.1884,0.1844,0.1914,0.1953,0.1957,0.1976,0.1977,0.1978,0.2034,0.2035,0.2037,0.2038,0.2114,0.2116,0.2118,0.2103,0,0,0.2123,0.2124,0,0,0,0,0,0,0,0,0.1882,0.1887,0.1946,0.195,0.1955,0.2001,0.1981,0.2021,0.2034,0.2002,0.2037,0.2039,0.2079,0.2083,0.2089,0.2107,0.211,0.2124,0.2125,0.2126,0.2126,0,0,0,0,0,0,0,0.1879,0.1884,0.1936,0.1947,0.1953,0.1968,0.1975,0.1989,0.2031,0.2005,0.201,0.202,0.2081,0.2087,0.2091,0.2111,0.2124,0.2125,0.2126,0.2127,0.2248,0.225,0,0,0,0,0,0,0.1874,0.1881,0.1935,0.1939,0.1923,0.1968,0.1976,0.1983,0.2031,0.204,0.2019,0.2023,0.2083,0.2089,0.2094,0.2191,0.2126,0.2127,0.2128,0.2246,0.2248,0.2251,0,0,0,0,0,0,0.1872,0.1878,0.1932,0.1913,0.1922,0.1968,0.1976,0.1984,0.2033,0.2041,0.2051,0.2065,0.2084,0.2092,0.2148,0.219,0.2128,0.213,0.2243,0.2247,0.2249,0.2313,0,0,0,0,0,0,0.187,0.1877,0.1901,0.1913,0.1923,0.1969,0.1975,0.1984,0.2035,0.2042,0.2083,0.2089,0.2086,0.2145,0.215,0.2192,0.2131,0.2241,0.2245,0.2248,0.2308,0.2317,0.2326,0,0,0,0,0,0.1867,0.1885,0.1901,0.1909,0.1947,0.197,0.1977,0.2012,0.2037,0.2061,0.2097,0.209,0.2173,0.2148,0.2153,0.2197,0.2239,0.2244,0.2248,0.2304,0.2316,0.2325,0,0,0,0,0,0,0.1869,0.1893,0.1911,0.1938,0.1967,0.1981,0.2013,0.2036,0.2082,0.2104,0.2112,0.212,0.2187,0.2184,0.2156,0.2244,0.2207,0.2213,0.2248,0.2259,0.2267,0.2267,0.2133,0,0,0,0,0,0.1879,0.1903,0.1925,0.1953,0.197,0.2001,0.2024,0.2049,0.2081,0.2105,0.2134,0.2169,0.2201,0.2225,0.2249,0.2293,0.2293,0.2327,0.2336,0.2343,0.2349,0.2391,0.2404,0.2266,0.2266,0.2266,0,0,0.1889,0.1907,0.1923,0.1957,0.1983,0.2011,0.2019,0.2065,0.2101,0.2104,0.2177,0.2204,0.2221,0.2275,0.2305,0.2284,0.2384,0.2349,0.2355,0.2356,0.2398,0.2411,0.2423,0.2269,0.2268,0.2268,0,0,0.1904,0.1937,0.1958,0.1984,0.2032,0.2049,0.2073,0.2114,0.2151,0.2211,0.2229,0.2284,0.2331,0.2352,0.2366,0.2438,0.2431,0.2456,0.25,0.2542,0.2553,0.2563,0.2578,0.2589,0.2458,0.2459,0.2459,0,0.1921,0.1944,0.1971,0.1997,0.2027,0.2071,0.2102,0.214,0.22,0.2237,0.2248,0.2348,0.2364,0.2426,0.2455,0.2458,0.2474,0.2455,0.2553,0.2563,0.2572,0.2585,0.2596,0.2462,0.2462,0.2461,0.2461,0,0.1934,0.1973,0.1991,0.2037,0.2074,0.2111,0.2158,0.2213,0.2268,0.2306,0.2399,0.2429,0.2488,0.2506,0.2503,0.2583,0.2571,0.2559,0.2521,0.2589,0.2599,0.2609,0.2467,0.2466,0.2465,0.2464,0,0,0.1918,0.1986,0.1998,0.2029,0.2101,0.2126,0.22,0.2268,0.233,0.2401,0.2477,0.2541,0.2578,0.2597,0.2612,0.2647,0.2723,0.2639,0.2639,0.2646,0.281,0.263,0.2623,0.2736,0.2739,0.2741,0.2789,0,0.1927,0.1973,0.2013,0.2077,0.2105,0.2173,0.2235,0.2311,0.2385,0.2471,0.2529,0.261,0.2607,0.2653,0.2692,0.2722,0.2755,0.271,0.275,0.275,0.2576,0.2631,0.2748,0.2796,0.2798,0.28,0.2801,0,0.1918,0.1954,0.2011,0.2096,0.2118,0.2173,0.2286,0.2349,0.2472,0.2537,0.2631,0.268,0.2765,0.2746,0.2832,0.281,0.2821,0.2828,0.283,0.2645,0.2589,0.2716,0.282,0.2818,0.2817,0.2816,0.2815,0,0.1869,0.1952,0.2,0.2028,0.2131,0.2188,0.2258,0.2379,0.2449,0.2593,0.2661,0.2763,0.2829,0.287,0.2899,0.2883,0.2971,0.2944,0.2787,0.2774,0.2894,0.2882,0.2998,0.2998,0.2998,0.2998,0.2998,0,0.1836,0.1881,0.199,0.2013,0.2089,0.2176,0.2278,0.2366,0.2503,0.258,0.27,0.2761,0.2869,0.2926,0.2933,0.2888,0.3004,0.2799,0.2778,0.2919,0.291,0.29,0.2888,0.3,0.2999,0.2999,0.2998,0,0.1769,0.1839,0.1901,0.2022,0.2067,0.2127,0.2278,0.2343,0.2491,0.2595,0.2647,0.2794,0.2859,0.2928,0.2995,0.291,0.2897,0.2852,0.3,0.2986,0.2662,0.2653,0.267,0.2664,0.2659,0.2655,0.2651,0,0.1731,0.1759,0.1893,0.1936,0.1999,0.2102,0.2168,0.2325,0.239,0.258,0.2608,0.2738,0.2808,0.2755,0.2846,0.2842,0.281,0.2777,0.2709,0.2651,0.2631,0.263,0.2628,0.2643,0.2642,0.2641,0.2639,0,0.1663,0.1733,0.1785,0.1872,0.1949,0.2016,0.2122,0.2149,0.2315,0.2468,0.2503,0.2532,0.2598,0.2636,0.2658,0.2651,0.2782,0.2724,0.2733,0.2669,0.262,0.2604,0.2608,0.2622,0.2625,0.2626,0.2627,0,0.1624,0.1643,0.1726,0.1785,0.1873,0.1895,0.1963,0.2021,0.2098,0.2294,0.2299,0.2433,0.2569,0.2538,0.2558,0.2539,0.2492,0.2395,0.242,0.244,0.2342,0.2244,0.2115,0,0,0,0,0,0.1572,0.1578,0.1628,0.1672,0.175,0.1803,0.1914,0.1983,0.213,0.2095,0.2189,0.2235,0.226,0.2337,0.2269,0.2461,0.2508,0.237,0.2411,0.2526,0.2546,0.2451,0,0,0,0,0,0,0.1533,0.1582,0.1587,0.1564,0.1576,0.164,0.1706,0.1806,0.1792,0.1951,0.198,0.2099,0.2166,0.2279,0.2229,0.225,0.2226,0.2461,0.2454,0.2515,0.2533,0.2549,0.2458,0,0,0,0,0]},{"header":{"parameterUnit":"m.s-1","parameterCategory":2,"la1":30.2991,"la2":30.254,"lo1":-89.0895,"lo2":-89.0444,"dy":0.0017,"dx":0.0017,"nx":28,"ny":28,"refTime":"2025-04-30T09:00:00:Z","depth":"4","parameterNumber":3,"parameterNumberName":"V-component_of_CURRENTS"},"data":[0,0,0,0,0,0,0,0,0,0,0,0,0,0,0,0,0,0,0,0,0,0,0,0,0,0,0,0,0,0,0,0,0,0,0,0,0,0,0,0,0,0,0,0,0,0,0,0,0,0,0,0,0,0,0,0,0,0,0.0141,0.014,0,0.0115,0.0115,0.0115,0.0097,0.0097,0.0097,0.0097,0.0048,0.0047,0.0046,0,0,0,0,0,0,0,0,0,0,0,0,0,0.0131,0.0131,0.0141,0.014,0.014,0.0115,0.0115,0.0115,0.0097,0.0097,0.0097,0.0096,0.0049,0.0047,0.0046,0,0,0,0,0,0,0,0,0,0,0,0,0,0.0122,0.0131,0.0141,0.0129,0.0128,0.0115,0.0115,0.0114,0.0097,0.0097,0.0097,0.0096,0.0049,0.0047,0.0045,0.0036,0,0,0.004,0.0039,0,0,0,0,0,0,0,0,0.0123,0.0123,0.0131,0.013,0.0128,0.011,0.0094,0.0087,0.0097,0.0107,0.0097,0.0096,0.0067,0.0064,0.0058,0.0033,0.0031,0.004,0.0038,0.0038,0.0037,0,0,0,0,0,0,0,0.0124,0.0123,0.013,0.0131,0.0129,0.0111,0.011,0.0092,0.0087,0.0106,0.0105,0.0104,0.0066,0.006,0.0057,0.003,0.004,0.0038,0.0037,0.0036,0.0007,0.0007,0,0,0,0,0,0,0.0131,0.0124,0.013,0.0129,0.0127,0.0111,0.011,0.0115,0.0088,0.0084,0.0104,0.0103,0.0063,0.0059,0.0055,0.0065,0.0038,0.0036,0.0035,0.0007,0.0007,0.0007,0,0,0,0,0,0,0.0131,0.0132,0.0131,0.0126,0.0125,0.0112,0.0117,0.0115,0.0114,0.0086,0.0082,0.0107,0.0063,0.0058,0.0049,0.0062,0.0035,0.0033,0.0006,0.0007,0.0007,0.007,0,0,0,0,0,0,0.0131,0.0133,0.0139,0.0127,0.0126,0.0134,0.0118,0.0114,0.0113,0.0112,0.0087,0.0082,0.0063,0.0052,0.0048,0.0059,0.0032,0.0006,0.0006,0.0007,0.0067,0.0072,0.0076,0,0,0,0,0,0.0131,0.0143,0.014,0.0141,0.0136,0.0134,0.0132,0.0121,0.0114,0.0118,0.0102,0.0083,0.0053,0.0051,0.0046,0.0057,0.0006,0.0006,0.0007,0.0065,0.0071,0.0076,0,0,0,0,0,0,0.014,0.0142,0.0138,0.015,0.0146,0.0132,0.0134,0.0126,0.0117,0.0115,0.0088,0.0083,0.0078,0.0058,0.0057,0.0049,0.0026,0.0025,0.0072,0.0077,0.0082,0.0095,0.003,0,0,0,0,0,0.0147,0.0158,0.0153,0.0161,0.0162,0.0149,0.0147,0.014,0.013,0.0126,0.0109,0.009,0.0076,0.007,0.0051,0.005,0.002,0.0052,0.0056,0.0061,0.0067,0.0032,0.0034,0.001,0.001,0.001,0,0,0.0151,0.0154,0.016,0.0164,0.0159,0.0171,0.0147,0.015,0.016,0.0121,0.0129,0.0105,0.0077,0.0076,0.0072,0.0062,0.0052,0.0062,0.0066,0.007,0.0033,0.0035,0.0037,0.001,0.001,0.001,0,0,0.0169,0.0171,0.0187,0.0191,0.0191,0.0186,0.0191,0.0183,0.0179,0.018,0.0156,0.0142,0.0122,0.0107,0.0096,0.0115,0.0075,0.0108,0.0147,0.0113,0.0115,0.0116,0.0083,0.0081,0.0114,0.0114,0.0114,0,0.0175,0.0199,0.019,0.0208,0.0219,0.0199,0.0222,0.0215,0.0206,0.0208,0.0191,0.0162,0.0137,0.0137,0.0144,0.0126,0.01,0.013,0.012,0.012,0.012,0.0086,0.0083,0.0117,0.0116,0.0116,0.0116,0,0.0206,0.0227,0.0237,0.0259,0.0267,0.0282,0.0278,0.0279,0.0271,0.0266,0.026,0.0222,0.0208,0.0195,0.0176,0.0171,0.0149,0.0128,0.0108,0.0127,0.0089,0.0085,0.0121,0.012,0.0119,0.0118,0,0,0.0217,0.0254,0.0259,0.0283,0.0299,0.031,0.0325,0.0338,0.0356,0.033,0.0343,0.0311,0.029,0.0276,0.0244,0.0215,0.019,0.0179,0.0176,0.0152,0.0115,0.0102,0.0095,0.0167,0.0167,0.0166,0.0089,0,0.0247,0.0297,0.0307,0.0356,0.0384,0.0379,0.0401,0.0407,0.0405,0.041,0.0365,0.0366,0.0322,0.0317,0.0281,0.0214,0.0181,0.0213,0.0096,0.0093,0.0083,0.0091,0.0165,0.0085,0.0084,0.0084,0.0083,0,0.0278,0.0312,0.0368,0.0417,0.0429,0.0454,0.0488,0.0508,0.0506,0.0503,0.0487,0.0452,0.0413,0.0367,0.0263,0.0286,0.021,0.015,0.0145,0.0109,0.0071,0.0061,0.0074,0.0075,0.0075,0.0076,0.0077,0,0.0297,0.0354,0.0404,0.0422,0.0471,0.0493,0.0519,0.0538,0.057,0.0567,0.0579,0.0522,0.0499,0.0395,0.0273,0.0269,0.0147,0.0122,0.0035,0.0033,0.004,0.004,0.0043,0.0043,0.0043,0.0044,0.0044,0,0.0327,0.0367,0.042,0.0448,0.0514,0.0534,0.06,0.0613,0.0644,0.0688,0.0635,0.0641,0.0504,0.0418,0.0294,0.0155,0.016,0.0044,0.0014,0.0068,0.0071,0.0037,0.0037,0.0041,0.0041,0.0042,0.0042,0,0.034,0.0373,0.0437,0.0499,0.0527,0.0575,0.0661,0.0708,0.0729,0.0778,0.078,0.0731,0.0624,0.0474,0.0306,0.0194,0.0053,-0.0001,0.0074,0.0048,-0.0045,-0.0041,-0.0101,-0.0102,-0.0103,-0.0104,-0.0105,0,0.0352,0.0387,0.0475,0.0523,0.0557,0.0635,0.0695,0.0747,0.0804,0.0832,0.0856,0.0778,0.0717,0.0482,0.0314,0.0077,0.0037,-0.0045,-0.0051,-0.0035,-0.0059,-0.0053,-0.0048,-0.0106,-0.0106,-0.0107,-0.0107,0,0.0375,0.0406,0.0459,0.056,0.0633,0.0721,0.0807,0.0852,0.0909,0.0925,0.0922,0.0803,0.0682,0.0495,0.0311,0.0137,0.0003,-0.0055,-0.0055,-0.0061,-0.0042,-0.0063,-0.0057,-0.011,-0.011,-0.0109,-0.0109,0,0.0393,0.043,0.0504,0.0593,0.0689,0.0781,0.0825,0.0891,0.0945,0.0971,0.0967,0.0837,0.0769,0.0526,0.0356,0.0185,0.0134,0.0062,0.0056,0.0057,0.0119,0.0168,0.0142,0,0,0,0,0,0.041,0.0455,0.0535,0.0631,0.0728,0.0789,0.0893,0.0931,0.0978,0.0985,0.0981,0.0868,0.0633,0.0545,0.0373,0.0316,0.0089,0.0105,-0.0002,-0.0128,-0.0124,-0.008,0,0,0,0,0,0,0.042,0.0492,0.053,0.0651,0.0721,0.0833,0.0901,0.0935,0.0946,0.0964,0.0856,0.0804,0.0588,0.0731,0.0364,0.0313,0.0215,0.0004,-0.0001,-0.013,-0.0126,-0.0123,-0.0077,0,0,0,0,0]}]]